Location: Ferris
(32.5340°N, 96.6656°W)
Time: 23:02:16
(UTC+00:00)

Cosmos 1354 Rocket - Pass Details

Date: 18 May 2026
Orbit: 761 x 778 km, 74.0° (Epoch: 7 June)

Event Time Altitude Azimuth Distance (km) Brightness Sun altitude
Rises 03:30:35 0° 359° (N) 3,232 7.9 -23.6°
Reaches altitude 10° 03:33:29 10° 14° (NNE) 2,300 6.8 -24.0°
Enters shadow 03:37:08 22° 59° (ENE) 1,626 5.5 -24.5°
